{"data":{"norad_id":60576,"intl_designator":"2024-149DN","name":"LEMUR-2-AHMED-ASRAR","alt_names":[],"object_type":"PAYLOAD","status":"ACTIVE","operator":null,"country":"US","launch_date":"2024-08-16","launch_site_code":"AFWTR","launch_vehicle":null,"mission":null,"orbit_class":"UNKNOWN","rcs_meters":null,"size_class":null,"mass_kg":null,"dimensions":null,"purposes":["earth_obs"],"wikipedia_slug":null,"has_3d_model":false,"image_url":null,"decayed_at":null,"tle_current":{"epoch":"2026-05-25T04:54:51.918048Z","epoch_age_seconds":54570,"freshness":"FRESH","line1":"1 60576U 24149DN  26145.20476757  .00011537  00000+0  67343-3 0  9992","line2":"2 60576  97.6994 230.0000 0003440  93.1624 267.0000 15.12094459 97091","mean_motion":15.12094459,"eccentricity":0.000344,"inclination_deg":97.6994,"raan_deg":230,"arg_perigee_deg":93.1624,"mean_anomaly_deg":267,"bstar":0.00067343,"rev_number":9709,"period_min":95.232145811335,"perigee_km":527.43732070375,"apogee_km":532.18999075489,"semimajor_km":6907.9506557293,"source":"CELESTRAK","updated_at":"2026-05-25T13:38:13.536051Z"}}}